AirNav   Air Wisconsin Up To $57,000 Bonus
 
 1705 users online  

KAOV Ava Bill Martin Memorial Airport
Ava, Missouri, USA

GOING TO AVA?


FAA INFORMATION EFFECTIVE 16 JUNE 2022

Location

FAA Identifier: AOV
Lat/Long: 36-58-18.7940N 092-40-55.0050W
36-58.313233N 092-40.916750W
36.9718872,-92.6819458
(estimated)
Elevation: 1311 ft. / 399.6 m (surveyed)
Variation: 02E (2000)
From city: 2 miles NW of AVA, MO
Time zone: UTC -5 (UTC -6 during Standard Time)
Zip code: 65608

Airport Operations

Airport use: Open to the public
Control tower: no
ARTCC: KANSAS CITY CENTER
FSS: COLUMBIA FLIGHT SERVICE STATION
NOTAMs facility: COU (NOTAM-D service available)
Attendance: UNATNDD
Wind indicator: lighted
Segmented circle: yes
Lights: ACTVT MIRL RY 13/31 - CTAF.
Beacon: white-green (lighted land airport)
Operates sunset to sunrise.

Airport Communications

CTAF/UNICOM: 122.7
SPRINGFIELD APPROACH: 126.35
SPRINGFIELD DEPARTURE: 126.35

Airport Services

Fuel available: 100LL
Parking: tiedowns
Airframe service: MAJOR
Powerplant service: MAJOR
Bottled oxygen: NONE
Bulk oxygen: NONE

Runway Information

Runway 13/31

Dimensions: 3634 x 50 ft. / 1108 x 15 m
Surface: asphalt, in excellent condition
Runway edge lights: medium intensity
RUNWAY 13  RUNWAY 31
Latitude: 36-58.534085N36-58.093648N
Longitude: 092-41.169547W092-40.663890W
Elevation: 1277.0 ft.1311.0 ft.
Traffic pattern: leftleft
Runway heading: 135 magnetic, 137 true315 magnetic, 317 true
Markings: nonprecision, in good conditionnonprecision, in good condition
Visual slope indicator: 2-box SAVASI on left (3.00 degrees glide path)
Touchdown point: yes, no lightsyes, no lights
Obstructions: 33 ft. trees, 235 ft. from runway, 197 ft. right of centerline, 1:1 slope to clear
TREES 10-35' TALL, 10-175' FROM RUNWAY END, 150-250 FT RIGHT
none

Airport Ownership and Management from official FAA records

Ownership: Publicly-owned
Owner: CITY OF AVA
404 SOUTH JEFFERSON ST, P.O. BOX 967
AVA, MO 65608
Phone 417-683-5516
Manager: DAVID DAVIDSON
PO BOX 967
AVA, MO 65608
Phone 417-683-3169

Airport Operational Statistics

Aircraft based on the field: 10
Single engine airplanes: 8
Multi engine airplanes: 2
    
Aircraft operations: avg 127/week *
73% local general aviation
18% transient general aviation
8% military
<1% air taxi
* for 12-month period ending 31 December 2018

Additional Remarks

NTSD RY SAFETY AREA BYD RY 13 END, INSUF LENGTH AND LARGE DROP OFF.
100LL SELF SVC CREDIT CARD AVBL 24 HRS.
CLICK PCL 5 TIMES TO UNLOCK TERMINAL DOOR.
FOR CD CTC SPRINGFIELD APCH AT 417-868-5620/5619.

Instrument Procedures

NOTE: All procedures below are presented as PDF files. If you need a reader for these files, you should download the free Adobe Reader.

NOT FOR NAVIGATION. Please procure official charts for flight.
FAA instrument procedures published for use from 16 June 2022 at 0901Z to 14 July 2022 at 0900z.

 
IAPs - Instrument Approach Procedures
RNAV (GPS) RWY 13   download (187KB)
RNAV (GPS) RWY 31   download (178KB)
VOR-A   download (183KB)
NOTE: Special Take-Off Minimums/Departure Procedures apply   download (421KB)

Other nearby airports with instrument procedures:

1MO - Mountain Grove Memorial Airport (20 nm NE)
KTVB - Cabool Memorial Airport (30 nm E)
3DW - Downtown Airport (31 nm NW)
KPLK - M Graham Clark Downtown Airport (33 nm SW)
KBBG - Branson Airport (36 nm SW)
 
Loc | Ops | Rwys | IFR | FBO | Links
Com | Nav | Svcs | Stats | Notes

Branson Jet Center
AirBoss

 
Area around KAOV (Ava Bill Martin Memorial Airport)
 
Road maps at: MapQuest Bing Google
 
Aerial photo
WARNING: Photo may not be current or correct
Aerial photo of KAOV (Ava Bill Martin Memorial Airport)
Do you have a better or more recent aerial photo of Ava Bill Martin Memorial Airport that you would like to share? If so, please send us your photo.

 
Sectional chart

 
Airport distance calculator
Flying to Ava Bill Martin Memorial Airport? Find the distance to fly.

From to KAOV

Sunrise and sunset
Times for 28-Jun-2022
 Local
(UTC-5)
 Zulu
(UTC)
Morning civil twilight05:2410:24
Sunrise05:5510:55
Sunset20:3301:33
Evening civil twilight21:0402:04

Current date and time
Zulu (UTC)  28-Jun-2022 17:59:14
Local (UTC-5)  28-Jun-2022 12:59:14
 
METAR
KBBG 
36nm SW 
281445Z 00000KT 10SM CLR 22/11 A3031
KSGF 
37nm NW 
281752Z 34006KT 10SM CLR 27/08 A3025 RMK AO2 SLP233 T02720083 10272 20178 58011
KBPK 
38nm S 
281753Z AUTO VRB04KT 10SM CLR 26/10 A3025 RMK AO2 SLP234 T02610100 10267 20156 58012
KUNO 
38nm E 
281753Z AUTO 10SM CLR 26/07 A3028 RMK AO2 SLP241 T02560072 10261 20167 58012
KFWB 
38nm SW 
281755Z AUTO VRB04KT 10SM CLR 27/10 A3027 RMK AO2
KLBO 
41nm N 
281755Z AUTO 00000KT 10SM CLR 25/07 A3029 RMK AO2
KFLP 
43nm S 
281656Z AUTO VRB06KT 10SM CLR 24/13 A3028 RMK AO2 SLP248 T02440128
KHRO 
48nm SW 
281753Z AUTO VRB06KT 10SM CLR 24/11 A3028 RMK AO2 SLP243 T02440111 10244 20150 58006
TAF
KBBG 
36nm SW 
281120Z 2812/2912 VRB04KT P6SM SCT200
KSGF 
37nm NW 
281120Z 2812/2912 VRB04KT P6SM SCT200
KBPK 
38nm S 
281130Z 2812/2912 09006KT P6SM BKN120 OVC250 FM281800 11006KT P6SM SCT250 FM290000 VRB04KT P6SM FEW250
NOTAMs
Click for the latest NOTAMs
NOTAMs are issued by the DoD/FAA and will open in a separate window not controlled by AirNav.

 

 
 

FBO, Fuel Providers, and Aircraft Ground Support

  
 Business Name 
 
 Contact 
 
 Services / Description 
 
Fuel Prices
 
Comments
  
City of Ava, Missouri 417-840-2301
417-683-5516
[web site]
[email]
Aviation fuel, Aircraft parking (ramp or tiedown), Passenger terminal and lounge, Aircraft maintenance, Rental cars delivered, Public telephone, Computerized weather, ...

More info about City of Ava, Missouri
Phillips 66
100LL
SS $6.45 
 Updated 13-Jun-2022
 
   write
SS=Self service
Update Fuel Prices
 

Would you like to see your business listed on this page?

 If your business provides an interesting product or service to pilots, flight crews, aircraft, or users of the Ava Bill Martin Memorial Airport, you should consider listing it here.  To start the listing process, click on the button below
 
Add a business
 

Other Pages about Ava Bill Martin Memorial Airport

Update a link
 
Copyright © AirNav, LLC. All rights reserved. Privacy Policy  Contact